STARLINK-4692, 53603

Orbit data source: Space-Track

STARLINK-4692, 53603 is a payload satellite owned by SpaceX/Seattle (US) in LEO that was launched on Sun, 28 Aug 2022 UTC via an FALCON 9 launch vehicle from the Air Force Eastern Test Range (AFETR). Payload-class satellites include a variety of spacecraft equipped with specific instruments for various scientific and technological missions. These include communications satellites like Starlink; space stations such as the ISS; scientific satellites like the Hubble; Earth observation satellites from companies like Planet Labs, Umbra, and HawkEye 360; GPS; miniature CubeSats for education and research; and military/defense satellites.

Loading next visibility...
Identifier
53603, 2022-104R
Orbit
LEO
Country
Flag of USUS
Related business
Manufacturer
SpaceX/Seattle
Mission
Operational Commercial Communications
Bus & Motor
STARLINK, Unknown motor
Mass
300 kg wet, ~290 kg dry
Launch date (UTC)
2022-08-28 (3 years ago)
Launch vehicle
FALCON 9
Launch site
Air Force Eastern Test Range (AFETR)
Object type
Payload
Rocket body
Debris
Shape & HBR
Box + 1 Pan, 10.1 m
Radar Cross Section
13.562 m², Large (>1 m²)

Expand to show TLE details & history
Last TLE update: 16 hours ago

TLE from 16 hours ago
0 STARLINK-4692
1 53603U 22104R   25286.97454895  .00002207  00000-0  15670-3 0  9993
2 53603  53.2128 177.9238 0001704  90.6315 269.4872 15.08846951173537
Epoch: 2025-10-13T23:23Z
TLE epoch observation values (Epoch: 2025-10-13T23:23:21.029Z)
Latitude
-0.00004°
Longitude
164.31652°
Altitude
540.63 km
Speed
7.593 km/s
True Right ascension
11h 51m 41s
True Declination
0° 00' 00"
Sunlit
Object was in daylight at epoch
Visualization orbit readout
Latitude
Unknown
Longitude
Unknown
Altitude
Unknown
Speed
Unknown
Apparent Right ascension
Unknown
Apparent Declination
Unknown
Sunlit
N/A
Visualization observer readout
Local Sidereal Time
10:00:04
Azimuth
Unknown
Elevation
Unknown
Doppler factor
Unknown
Orbital elements
Apogee altitude
541.147 km
Perigee altitude
538.789 km
Semi-major axis
6,918.105 km
Eccentricity
0.00017
Inclination
53.2128°
RAAN
177.9238°
Arg. of periapsis
90.6315°
True anomaly
269.46767°
Mean anomaly
269.4872°
Eccentric anomaly
269.47744°
Mean motion
3.77192 °/min
Orbital period
95.44 mins
BSTAR
0.0001567
Loading maneuver chart data...
Computing Atmospheric mass density...
Loading historical data...
Loading historical data...
Loading historical data...
Loading historical data...
Loading historical data...
Loading historical data...
Loading historical data...

Documentation

Showing up to 5 results
|